Regional Weather Roundup
Issued by NWS

Home | Current Version | Previous Version | Text Only | Print | Product List | Glossary Off
Versions: 1 2 3 4 5 6 7 8 9 10 11 12 13 14 15 16 17 18 19 20 21 22 23 24 25 26 27 28 29 30 31 32 33 34 35 36 37 38 39 40 41 42 43 44 45 46 47 48 49 50

000
ASUS45 KSLC 281610
RWRUT

UTAH REGIONAL WEATHER ROUNDUP
NATIONAL WEATHER SERVICE SALT LAKE CITY UT
1000 AM MDT THU APR 28 2016

UTZ001>011-023>025-281700-

NORTHERN UTAH

CITY           SKY/WX    TMP DP  RH WIND       PRES   REMARKS
BRIGHAM CITY     N/A     50  29  44 S7G17     29.74S
HILL AFB       CLOUDY    42  34  72 SE21      29.74R
LOGAN            N/A     48  30  49 SE20      29.76S
OGDEN          CLOUDY    48  33  56 VRB5      29.72R
PROVO AIRPORT  CLOUDY    46  41  81 VRB6      29.70F
SALT LAKE CITY LGT RAIN  49  36  61 CALM      29.71R
VERNAL         LGT RAIN  39  34  82 NE8       29.78R WCI  33
WENDOVER       CLOUDY    45  36  70 N16       29.75R
HEBER CITY     MIX PCPN  39  34  81 N8        29.72S WCI  34

$$

UTZ012>022-026-027-281700-

SOUTHERN/CENTRAL UTAH

CITY           SKY/WX    TMP DP  RH WIND       PRES   REMARKS
BLANDING       CLOUDY    46  41  81 W6        29.81R
BRYCE CANYON   LGT SNOW  32  30  92 SE7       29.72S FOG     WCI  26
CEDAR CITY       N/A     43  37  79 W5        29.66S
DELTA          CLOUDY    43  43 100 SW3       29.68S
HANKSVILLE     CLOUDY    41  37  87 NW9       29.74F
MILFORD          N/A     42  39  89 N8        29.68R
MOAB/CYNLANDS  CLOUDY    51  44  77 E10       29.70F
PRICE          CLOUDY    38  36  92 CALM      29.73S
ST GEORGE      CLOUDY    54  39  58 N6        29.69S

$$

REGIONAL REPORTS     COLORADO/ARIZONA

CITY           SKY/WX    TMP DP  RH WIND       PRES   REMARKS
CRAIG, CO      LGT SNOW  33  31  92 CALM      29.79S VSB 1
GRAND JUNCTION CLOUDY    43  38  82 NW3       29.75F
RIFLE          LGT RAIN  43  38  82 E3        29.78R
MONTROSE       MOSUNNY   49  38  65 NE5       29.77F
CORTEZ         MOSUNNY   57  29  34 S23G31    29.75S
PAGE, AZ       LGT RAIN  49  40  71 NW3       29.69R
GRAND CANYON   PTSUNNY   42  30  62 SW13      29.71S
KINGMAN        CLOUDY    46  43  89 NE8       29.72R
FLAGSTAFF        N/A     42  25  50 SW16G28   29.73S

$$

REGIONAL REPORTS    NEVADA/IDAHO/WYOMING

CITY           SKY/WX    TMP DP  RH WIND       PRES   REMARKS
LAS VEGAS, NV  PTSUNNY   59  44  57 CALM      29.62R
ELY            CLOUDY    36  36 100 N15       29.72R WCI  27
ELKO           CLOUDY    47  37  68 NE13      29.77R
POCATELLO, ID  MOSUNNY   48  32  53 NE18      29.82S
BURLEY           N/A     48  34  58 NE6       29.82R
EVANSTON, WY   CLOUDY    33  25  72 E21G29    29.79S WCI  21
ROCK SPRINGS   CLOUDY    32  24  72 NE26G37   29.85S WCI  18

$$



USA.gov is the U.S. government's official web portal to all federal, state and local government web resources and services.